Temperature
15 15 16 16 20 21 23 23 22 22 22 21 21 22 23 24 24 22 18 18 18 18 17 17 17 17 16 16 16 16 16 16 16 16 16 16 16 16 16 16 16 16 16 16 16 15 15 15 16
15 15 15 18 21 22 23 22 22 22 21 20 20 21 22 21 20 18 18 18 18 17 17 17 17 17 16 16 16 16 16 16 16 16 16 16 16 16 16 16 16 16 16 16 15 15 15 15 15
15 15 17 20 21 22 23 22 22 21 20 20 21 20 21 20 18 18 17 18 17 17 17 17 17 17 16 16 16 16 16 16 16 16 16 16 16 16 16 16 16 15 15 15 15 15 15 15 15
14 16 18 20 21 21 22 22 21 21 20 19 20 21 19 17 17 17 18 17 17 17 16 17 17 17 16 16 16 16 16 16 16 16 16 16 16 15 15 15 15 15 15 15 15 15 15 15 15
15 17 19 20 20 20 21 20 19 21 21 20 20 21 19 17 17 17 17 17 17 17 16 17 17 16 16 16 16 16 16 16 16 15 15 15 15 15 15 15 15 15 15 15 15 15 15 15 15
16 18 20 20 20 20 20 19 19 21 21 20 20 21 19 17 17 17 17 17 17 17 16 16 16 16 16 16 16 15 15 15 15 15 15 15 15 15 15 15 15 15 15 15 14 14 14 14 14
17 18 19 20 20 20 20 19 20 21 21 20 19 21 19 17 17 17 17 16 16 16 16 16 16 16 16 16 15 15 15 15 15 15 15 15 15 15 15 15 15 14 14 14 14 14 14 14 14
15 18 18 19 19 19 19 18 18 19 20 18 18 20 19 17 16 16 16 16 16 16 16 16 15 15 15 15 15 15 15 15 15 15 15 14 14 14 14 14 14 14 14 14 14 14 14 14 14
14 17 18 19 19 19 18 18 17 16 17 17 17 18 17 16 16 16 16 16 16 16 16 16 15 15 15 15 15 15 15 15 15 14 14 14 14 14 14 14 14 14 14 14 14 14 14 14 14
15 17 18 18 18 18 18 18 17 17 18 18 17 16 16 16 16 16 16 16 16 16 16 16 15 15 15 15 14 14 14 14 14 14 14 14 14 14 14 14 14 14 14 14 14 13 13 13 13
16 16 17 16 16 16 17 17 16 18 19 19 18 16 16 15 15 15 16 16 16 16 16 16 15 15 15 15 14 14 14 14 14 14 14 13 13 13 13 13 13 13 13 13 13 13 13 13 13
15 15 15 16 14 15 16 16 16 17 18 17 16 16 15 15 15 15 16 16 15 15 16 16 15 15 15 15 14 14 14 14 14 14 14 13 13 13 13 13 13 13 13 13 13 13 13 13 13
15 15 14 14 14 14 14 15 16 16 15 15 15 15 15 15 15 15 15 15 15 15 15 15 15 15 15 15 14 14 14 14 14 14 14 13 13 13 13 13 13 13 13 13 13 13 13 13 12
14 14 14 14 14 14 15 15 15 16 15 15 14 15 15 15 15 15 15 15 15 15 15 15 15 15 15 15 14 14 14 14 14 14 14 13 13 13 13 13 13 12 12 12 12 12 12 12 12
13 14 14 14 14 14 14 15 16 15 14 15 15 15 14 14 14 14 15 15 15 15 15 15 15 15 15 14 14 14 14 14 14 13 13 13 13 13 13 12 12 12 12 12 12 12 12 12 12
13 14 14 15 14 14 14 16 17 15 15 15 15 15 14 14 14 14 14 14 14 15 15 15 15 15 15 14 14 14 14 13 13 13 13 13 13 12 12 12 12 12 12 12 12 11 11 11 11
13 14 15 15 14 14 14 16 17 14 14 15 15 15 15 14 14 14 14 14 14 14 14 15 15 15 14 14 14 13 13 13 13 13 13 12 12 12 12 12 12 12 11 11 11 11 11 11 11
14 14 14 15 14 14 14 15 16 15 14 15 15 15 14 14 14 14 14 14 14 14 14 14 14 14 14 14 13 13 13 13 12 12 12 12 12 12 12 11 11 11 11 11 11 11 11 10 10
14 14 14 14 13 13 14 15 16 16 15 15 15 15 14 14 13 13 13 13 13 14 14 14 14 14 14 13 13 13 13 12 12 12 12 12 12 11 11 11 11 11 10 10 10 10 10 10 10
13 13 14 13 13 13 14 14 16 15 15 15 15 15 14 14 13 13 13 13 13 13 14 14 14 13 13 13 13 13 13 12 12 12 12 11 11 11 11 11 11 10 10 10 10 10 9 9 9
12 13 13 13 12 12 13 15 16 15 14 14 13 13 13 13 13 12 12 12 13 13 13 13 13 13 13 13 13 12 12 12 11 11 11 11 11 11 11 10 10 10 10 10 9 9 9 9 8
12 12 12 12 12 13 13 14 16 16 15 14 14 13 13 12 12 12 12 12 12 13 13 13 13 13 12 12 12 12 12 11 11 11 11 11 10 10 10 10 10 9 9 9 9 9 8 8 8
12 12 12 12 12 12 12 12 16 15 15 15 15 14 13 12 12 12 12 12 12 12 12 12 12 12 12 12 12 12 11 11 11 10 10 10 10 10 10 10 9 9 9 9 8 8 8 7 7
11 11 11 11 11 11 13 13 15 16 15 15 15 13 12 12 11 11 11 11 11 12 12 12 12 12 12 12 11 11 11 11 10 10 10 9 9 9 9 9 9 8 8 8 8 7 7 7 7
11 10 10 10 10 12 13 12 15 15 14 14 14 13 12 11 11 11 11 11 11 11 12 11 11 11 11 11 11 11 10 10 10 10 9 9 9 9 9 8 8 8 8 8 7 7 7 7 6
11 11 12 12 13 13 11 12 15 14 13 13 12 12 11 11 11 10 10 10 10 11 11 11 11 11 11 10 10 10 10 10 10 10 9 9 8 8 8 8 8 7 7 7 7 7 6 6 6
10 10 12 12 11 12 13 13 13 13 12 12 12 12 11 11 10 10 10 10 10 10 10 10 10 10 10 10 10 10 10 9 9 9 9 8 8 8 8 7 7 7 7 7 7 6 6 6 5
10 11 10 10 10 12 13 13 14 14 13 13 12 12 11 10 10 9 10 10 10 10 10 10 10 10 10 9 9 9 9 9 9 9 8 8 8 7 7 7 7 7 6 6 6 6 5 5 5
9 9 10 10 11 12 13 14 14 14 13 13 13 11 11 10 9 9 9 9 9 9 9 9 9 9 9 9 9 9 9 8 8 8 8 7 7 7 7 6 6 6 6 6 6 5 5 5 4
10 10 10 10 9 10 12 13 13 12 12 12 12 11 10 9 9 9 9 8 8 8 8 9 9 8 8 8 8 8 8 8 7 7 7 7 7 6 6 6 6 6 6 5 5 5 5 4 4
Wind_Speed
3 3 3 3 5 6 9 6 4 5 4 2 1 2 2 2 0 3 4 5 5 8 10 11 9 10 10 10 10 10 10 9 9 9 9 9 8 8 7 7 6 6 6 6 6 6 6 6 7
3 3 4 4 6 9 7 7 7 5 3 2 2 3 3 2 3 5 5 5 6 9 10 10 10 10 10 10 10 10 9 9 9 8 8 8 8 7 7 6 6 6 5 5 5 5 6 6 6
4 3 4 5 7 9 5 5 6 4 3 3 3 2 1 3 4 4 5 7 8 9 10 10 10 10 10 10 10 9 9 8 8 8 7 7 7 7 6 6 6 5 5 5 5 5 5 5 5
5 4 4 7 11 7 4 3 4 5 4 3 3 4 3 3 2 3 6 8 9 10 10 11 9 10 9 9 9 9 9 8 7 7 6 6 6 7 6 5 5 5 5 4 4 4 4 4 4
4 5 7 9 11 6 5 3 4 5 5 4 4 3 4 3 3 5 7 8 9 9 9 11 9 9 8 8 8 8 8 8 7 6 6 6 6 6 5 5 5 5 4 4 4 4 4 4 3
5 5 9 12 11 7 6 5 5 6 5 4 4 4 4 4 5 6 7 7 8 9 8 10 9 8 8 8 7 7 7 7 7 6 5 5 5 5 5 4 4 4 4 3 3 3 3 2 2
7 6 9 10 9 8 6 5 7 7 7 5 3 4 5 6 5 6 7 7 7 7 7 8 9 9 8 7 6 6 6 6 5 5 4 4 4 4 4 4 4 4 3 3 2 2 2 2 2
5 5 8 9 9 8 5 5 4 6 5 2 3 4 4 5 6 6 7 6 6 6 6 6 7 8 8 8 7 6 5 5 5 4 4 4 4 4 4 4 4 4 3 2 2 2 2 2 3
4 7 10 9 8 6 6 5 3 2 3 3 3 1 2 7 7 8 7 7 6 5 5 6 6 6 7 7 7 7 6 5 4 4 4 4 4 4 4 3 4 4 3 3 2 3 3 4 4
8 10 10 5 5 4 5 5 4 5 7 6 5 3 4 7 8 9 9 9 8 7 7 6 6 6 6 5 6 5 5 5 5 4 4 4 3 2 2 3 3 3 3 4 3 4 4 5 4
8 10 7 6 5 4 5 5 4 7 9 9 8 6 5 7 8 9 9 8 8 7 7 6 6 6 6 5 5 4 4 4 4 4 4 3 3 2 2 2 3 4 4 3 3 4 4 4 4
8 9 7 6 4 5 6 5 7 10 8 5 5 5 6 8 9 10 9 8 7 7 7 7 7 6 6 5 4 4 4 3 3 4 4 3 2 2 2 2 2 2 3 2 3 3 3 4 5
13 9 8 7 7 7 8 10 10 12 10 8 7 8 9 9 9 9 9 8 8 8 8 8 8 7 6 5 4 4 4 3 4 3 4 3 2 2 2 1 1 2 2 3 3 3 3 4 4
9 9 9 9 9 8 10 12 11 12 9 9 10 11 11 10 10 9 9 9 9 9 9 8 8 8 7 6 6 5 4 4 3 3 3 4 3 2 2 1 1 2 2 2 3 3 3 4 4
6 8 10 11 11 7 7 13 15 12 9 11 11 11 11 11 11 11 10 10 9 9 8 8 8 8 8 7 7 5 5 5 4 3 4 4 3 2 2 2 2 1 2 2 3 3 4 4 4
6 8 10 8 8 8 9 14 9 8 11 12 12 11 11 11 12 11 10 9 9 8 8 8 7 8 8 7 7 5 5 4 4 4 3 4 3 3 2 1 2 2 2 2 2 3 3 4 4
8 10 12 8 8 7 11 12 6 7 10 13 13 12 12 11 11 10 9 9 9 9 9 8 9 9 9 8 6 5 4 4 3 3 3 3 3 3 2 1 1 2 1 2 2 3 4 4 5
10 10 9 10 6 8 13 15 11 10 12 13 13 13 12 11 11 9 9 9 8 8 8 9 9 9 8 7 6 5 4 3 3 3 3 3 3 3 2 1 2 2 2 2 2 3 4 4 5
8 9 10 8 5 8 14 18 16 14 14 15 14 13 12 11 9 7 7 8 8 8 8 9 9 9 8 7 6 6 5 4 3 2 3 3 3 3 2 2 2 2 2 3 3 3 4 4 4
11 11 10 6 5 7 13 19 17 15 15 14 14 13 12 10 9 7 7 7 8 8 8 9 9 9 9 8 7 5 5 4 3 2 2 3 3 3 2 3 2 2 2 3 3 3 3 3 3
15 15 12 8 5 7 10 14 13 11 11 11 11 12 11 11 11 9 8 8 8 8 8 8 9 9 9 9 7 6 4 4 3 3 2 2 3 3 3 3 2 2 3 2 3 4 4 4 3
14 12 11 9 7 6 5 8 10 8 9 10 10 10 11 10 10 9 9 8 8 7 6 7 8 8 9 9 9 9 7 6 5 4 3 2 2 3 2 2 3 3 2 3 3 4 4 5 4
8 6 9 9 9 9 9 9 10 7 10 10 9 9 9 10 10 9 9 9 7 6 6 6 7 8 9 9 9 9 7 6 4 4 4 3 2 2 2 2 2 3 2 3 3 4 4 4 5
8 6 4 4 6 9 13 12 10 8 9 8 8 8 8 9 9 9 8 7 6 5 5 6 7 7 8 9 9 9 9 8 7 6 5 3 2 2 2 2 2 3 3 3 4 4 5 5 6
11 8 5 6 8 9 7 10 10 6 6 7 7 7 8 8 8 8 8 7 7 6 6 6 7 7 7 8 8 8 9 8 8 6 5 4 3 2 3 2 3 3 3 3 4 4 5 6 6
17 14 9 8 8 5 6 10 7 4 5 6 6 6 6 6 7 7 7 7 7 7 6 7 7 7 7 7 7 7 7 6 5 6 5 4 3 3 3 3 3 3 3 4 4 4 5 6 6
12 14 9 4 3 6 8 7 7 6 6 6 6 6 6 5 6 6 6 6 6 7 7 7 7 7 7 7 7 6 6 5 5 4 4 3 3 2 2 3 3 3 3 4 4 4 6 6 6
8 9 7 7 7 8 8 9 7 7 8 7 6 6 5 4 4 5 6 6 6 6 6 7 7 7 7 6 6 5 5 4 4 3 3 3 2 2 2 3 3 3 4 4 4 5 6 6 7
10 10 8 7 6 7 7 5 3 5 6 6 6 5 5 4 4 5 5 6 6 6 6 6 6 7 6 6 6 5 4 4 3 3 2 2 2 1 2 2 3 4 4 4 5 5 6 7 7
12 12 12 8 7 7 6 4 2 2 2 3 4 3 3 3 3 4 4 5 6 6 6 6 6 6 6 5 5 5 4 3 3 2 2 1 1 1 2 2 3 4 5 5 5 6 7 7 8
Wind_Direction
230 212 205 208 211 222 228 206 198 176 179 169 172 194 183 164 134 93 94 125 122 142 148 148 144 143 140 136 132 129 127 124 125 124 125 126 124 122 121 120 119 119 117 113 111 106 101 101 99
198 190 201 213 225 220 216 205 198 184 142 129 158 180 165 123 70 96 120 129 135 141 146 145 140 143 140 141 136 133 129 127 127 127 127 127 127 124 121 120 121 121 118 113 108 105 104 106 106
178 211 209 210 224 228 205 181 190 170 171 189 159 152 146 115 112 118 112 139 142 141 144 136 139 144 142 141 140 136 133 130 129 129 129 131 130 126 123 119 119 118 113 110 106 105 107 109 114
186 189 213 228 225 226 229 157 159 170 171 193 185 145 126 78 83 101 124 144 144 144 145 137 142 145 143 140 141 139 138 137 136 133 132 133 135 131 125 122 123 120 113 110 112 113 112 114 123
205 204 212 224 228 221 222 224 196 193 175 169 185 159 135 103 92 116 136 145 146 144 145 142 141 144 144 144 142 144 145 143 142 139 138 139 139 138 134 131 129 129 125 120 117 123 122 121 130
190 210 221 225 219 216 219 216 215 215 195 178 183 164 137 123 126 127 139 146 146 145 147 146 144 144 145 144 144 145 149 148 146 146 149 151 149 145 146 145 143 135 133 134 132 134 136 138 145
209 212 230 230 222 217 209 207 217 213 206 196 193 176 149 142 128 136 143 144 145 147 150 152 159 159 155 148 144 141 143 148 147 152 159 158 154 153 157 153 151 143 137 142 150 154 164 174 173
224 219 226 224 222 217 192 193 218 225 214 180 208 202 174 151 141 143 144 146 147 153 160 160 164 168 170 165 153 146 140 140 146 155 166 161 161 163 158 164 158 158 159 161 182 198 199 198 202
212 226 228 219 218 209 187 199 201 234 213 202 208 249 90 133 149 152 154 159 161 167 174 174 174 172 174 172 161 162 158 152 159 165 160 178 192 188 180 175 151 173 187 200 221 234 219 220 212
207 228 230 222 223 210 195 212 205 207 214 210 199 180 152 159 173 177 181 181 181 181 183 185 185 180 178 174 173 181 181 177 188 189 178 192 194 190 194 154 170 194 210 220 229 239 231 234 235
210 232 229 223 227 227 221 225 220 228 230 224 214 192 178 186 196 201 201 197 194 189 186 192 190 187 184 180 180 180 183 184 192 193 188 191 192 189 199 198 191 209 219 229 222 236 243 249 248
219 230 231 223 216 230 237 238 240 238 246 249 235 216 209 212 212 212 212 208 202 199 197 195 193 190 189 187 182 183 183 183 184 190 194 193 197 212 207 218 224 231 233 245 249 253 255 260 260
223 229 229 233 234 244 249 249 257 252 252 252 243 230 226 226 226 225 222 217 212 208 202 197 194 191 188 187 184 184 189 187 183 184 192 198 206 218 216 227 228 245 248 247 261 266 267 268 269
224 229 236 241 242 243 248 256 251 250 243 236 231 230 230 228 227 227 223 221 218 214 207 198 195 192 188 188 186 185 185 183 188 184 192 201 207 213 218 229 238 252 253 259 265 274 273 271 272
220 235 244 238 235 236 245 254 241 239 230 232 232 233 234 234 230 230 228 226 223 217 208 198 194 191 189 190 188 184 185 184 185 188 197 202 208 208 208 233 239 253 258 263 264 271 274 275 272
208 227 236 219 218 216 224 252 235 222 226 236 235 234 236 237 236 234 232 229 223 215 207 197 189 191 189 189 187 184 185 184 185 191 195 201 204 203 204 228 248 259 254 261 265 269 273 276 277
209 227 231 222 209 210 223 254 237 226 236 242 240 239 240 240 237 231 227 222 218 213 203 195 191 191 189 187 183 180 179 181 180 182 185 190 195 200 198 217 244 247 255 265 270 272 273 279 283
210 220 227 224 201 223 239 253 255 247 248 249 246 244 240 237 234 227 221 217 215 210 201 195 191 190 183 178 174 172 173 176 175 174 175 181 186 191 196 206 229 239 239 252 262 267 273 278 284
218 222 233 237 233 245 252 261 263 257 251 249 246 242 237 234 230 220 212 209 206 202 197 194 191 185 179 177 177 179 181 179 174 172 174 180 181 183 190 209 222 235 237 250 263 268 273 282 290
219 227 237 248 242 253 268 270 267 256 247 246 244 239 231 227 221 212 204 200 201 200 197 196 193 189 187 185 183 183 177 179 175 170 178 185 183 185 191 211 219 227 236 248 256 261 267 275 282
223 228 232 240 263 253 280 273 252 244 242 241 239 236 231 225 219 212 206 201 198 200 199 197 195 191 188 182 174 166 164 169 177 183 187 191 188 194 197 210 223 230 237 245 252 256 259 267 272
226 226 229 232 243 252 252 278 256 241 239 231 230 228 226 221 217 211 206 202 201 201 194 194 193 191 187 182 182 180 184 186 196 190 189 196 201 204 205 216 227 234 242 249 255 259 262 262 263
217 198 209 221 235 257 239 254 264 235 235 228 226 224 219 215 211 208 204 201 200 194 190 188 187 187 186 186 185 185 186 185 180 180 183 193 208 215 216 223 235 240 246 252 258 261 261 260 260
171 154 170 205 227 247 232 229 261 229 232 228 226 219 214 211 208 208 203 196 194 187 182 183 182 185 184 184 184 186 184 182 180 184 188 195 205 223 235 242 245 246 251 254 257 258 258 260 262
186 176 186 202 215 237 207 223 249 243 233 231 223 212 209 207 204 202 196 194 193 187 181 181 180 183 184 183 186 188 188 188 189 191 195 199 208 230 243 247 251 252 254 257 260 258 259 258 260
197 200 206 215 224 222 204 231 243 243 242 235 228 212 203 202 202 200 198 195 191 185 181 179 180 182 182 182 185 186 188 191 194 196 198 202 214 228 240 245 252 259 263 262 261 261 261 260 258
192 210 226 241 263 249 229 240 264 234 226 216 212 203 200 201 201 199 198 194 190 186 184 181 178 179 181 180 179 180 181 182 188 194 200 203 211 224 233 243 254 260 264 266 267 263 262 262 262
211 188 190 209 213 235 238 236 228 200 202 199 203 204 201 197 197 198 196 192 189 185 182 179 178 176 176 176 175 175 178 177 180 184 192 196 204 223 242 249 260 267 271 271 270 270 268 265 264
185 192 200 202 226 234 242 238 209 218 206 202 201 203 199 194 196 196 188 183 179 177 175 174 172 171 170 170 170 168 165 165 170 176 182 182 192 216 245 262 274 277 278 278 276 273 273 271 271
206 203 196 200 209 226 248 248 132 231 220 209 200 198 206 203 195 187 178 173 171 170 168 166 167 167 167 163 161 158 154 159 166 167 174 181 196 247 271 284 284 284 282 281 278 276 275 274 274
Height
1506 1508 1510 1512 1511 1505 1499 1496 1496 1498 1499 1501 1502 1501 1500 1500 1502 1509 1510 1508 1509 1510 1511 1513 1514 1516 1517 1518 1520 1521 1522 1523 1523 1524 1525 1525 1525 1526 1526 1526 1526 1526 1526 1526 1527 1527 1527 1527 1527
1507 1508 1512 1512 1505 1501 1497 1494 1496 1497 1500 1502 1503 1502 1502 1503 1506 1507 1508 1508 1509 1511 1512 1513 1514 1516 1517 1519 1520 1521 1522 1523 1523 1524 1524 1525 1525 1526 1526 1526 1526 1526 1526 1526 1526 1527 1527 1527 1527
1506 1508 1511 1506 1500 1494 1493 1494 1495 1499 1502 1502 1502 1503 1503 1505 1507 1508 1508 1508 1510 1511 1512 1513 1515 1516 1517 1519 1520 1521 1521 1522 1523 1524 1524 1525 1525 1525 1526 1526 1526 1526 1526 1526 1526 1526 1526 1527 1527
1507 1510 1509 1503 1497 1494 1494 1495 1498 1499 1501 1502 1502 1503 1505 1506 1506 1507 1507 1509 1511 1512 1513 1514 1515 1516 1517 1518 1519 1520 1521 1522 1522 1523 1524 1524 1525 1525 1525 1526 1526 1526 1526 1526 1526 1526 1526 1526 1526
1507 1507 1503 1499 1495 1495 1496 1498 1499 1498 1499 1501 1502 1501 1504 1505 1505 1506 1508 1509 1511 1512 1513 1514 1515 1516 1517 1518 1519 1520 1520 1521 1522 1522 1523 1524 1524 1525 1525 1525 1525 1525 1525 1525 1525 1526 1526 1526 1526
1506 1503 1498 1493 1492 1495 1496 1499 1499 1498 1499 1501 1501 1501 1504 1505 1505 1506 1508 1509 1511 1512 1513 1514 1514 1516 1517 1518 1518 1519 1520 1520 1521 1522 1522 1523 1523 1524 1524 1524 1524 1524 1525 1525 1525 1525 1525 1525 1525
1503 1499 1493 1490 1492 1493 1495 1498 1498 1497 1497 1500 1501 1501 1503 1505 1505 1506 1507 1509 1510 1511 1512 1513 1514 1515 1516 1517 1518 1518 1519 1519 1520 1521 1521 1522 1522 1523 1523 1523 1524 1524 1524 1524 1524 1524 1524 1524 1524
1501 1499 1494 1492 1491 1491 1495 1497 1498 1498 1497 1500 1501 1500 1502 1504 1504 1505 1507 1508 1509 1510 1511 1512 1513 1514 1515 1516 1517 1517 1518 1518 1519 1520 1520 1520 1521 1521 1522 1522 1522 1522 1523 1523 1523 1523 1523 1523 1523
1501 1499 1490 1490 1490 1491 1495 1496 1497 1498 1498 1499 1499 1500 1501 1502 1503 1505 1506 1507 1508 1509 1510 1511 1512 1513 1514 1515 1516 1516 1517 1517 1518 1518 1519 1519 1520 1520 1520 1521 1521 1521 1521 1521 1521 1521 1521 1521 1521
1498 1493 1488 1490 1491 1491 1494 1495 1496 1497 1496 1497 1498 1499 1499 1500 1502 1503 1505 1506 1507 1508 1509 1510 1511 1512 1513 1513 1514 1515 1515 1516 1517 1517 1517 1518 1519 1519 1519 1519 1519 1519 1519 1519 1519 1519 1519 1519 1519
1494 1489 1489 1492 1493 1494 1494 1495 1496 1495 1493 1494 1495 1497 1498 1499 1501 1502 1503 1505 1505 1506 1507 1508 1509 1510 1511 1512 1512 1513 1514 1514 1515 1516 1516 1516 1517 1517 1517 1517 1517 1517 1517 1517 1517 1517 1517 1517 1517
1491 1490 1491 1491 1493 1494 1493 1494 1494 1493 1492 1493 1494 1495 1496 1497 1499 1500 1501 1502 1503 1504 1505 1506 1507 1508 1509 1510 1511 1511 1512 1513 1513 1513 1514 1515 1515 1515 1515 1515 1515 1515 1515 1515 1515 1515 1515 1514 1514
1489 1489 1491 1492 1493 1493 1493 1492 1492 1490 1491 1491 1492 1492 1493 1495 1496 1497 1498 1500 1500 1501 1502 1503 1504 1505 1506 1507 1508 1509 1510 1511 1511 1512 1512 1512 1513 1513 1513 1513 1513 1513 1513 1513 1513 1513 1512 1512 1512
1487 1488 1489 1490 1490 1491 1490 1488 1489 1485 1487 1488 1489 1489 1490 1491 1493 1494 1495 1496 1497 1498 1499 1500 1501 1503 1504 1505 1506 1507 1508 1508 1509 1509 1510 1510 1510 1510 1510 1511 1511 1511 1511 1511 1510 1510 1510 1509 1509
1488 1488 1486 1486 1487 1488 1489 1483 1481 1482 1484 1485 1485 1486 1487 1488 1489 1490 1491 1492 1493 1494 1496 1497 1498 1500 1501 1502 1504 1505 1505 1506 1507 1507 1507 1508 1508 1508 1508 1508 1508 1508 1508 1508 1508 1508 1507 1507 1506
1486 1484 1481 1480 1483 1485 1488 1474 1474 1478 1480 1480 1481 1482 1483 1483 1484 1485 1486 1487 1489 1490 1492 1493 1495 1497 1498 1499 1501 1502 1503 1503 1504 1504 1505 1505 1505 1506 1506 1506 1506 1506 1506 1505 1505 1505 1504 1504 1503
1481 1477 1474 1477 1480 1481 1481 1471 1472 1475 1476 1476 1476 1477 1478 1479 1479 1480 1482 1483 1484 1486 1488 1489 1491 1493 1495 1496 1498 1499 1500 1501 1501 1502 1502 1503 1503 1503 1503 1503 1503 1503 1503 1502 1502 1502 1502 1501 1500
1471 1471 1472 1473 1476 1478 1476 1469 1469 1471 1472 1471 1471 1472 1473 1474 1474 1476 1477 1478 1480 1482 1484 1485 1487 1489 1491 1493 1494 1495 1496 1497 1498 1499 1499 1500 1500 1500 1500 1500 1500 1500 1500 1500 1499 1499 1498 1498 1497
1468 1469 1469 1471 1475 1476 1471 1466 1464 1465 1466 1466 1466 1467 1468 1469 1471 1472 1473 1474 1476 1478 1479 1481 1483 1485 1487 1488 1490 1491 1492 1494 1495 1496 1496 1497 1497 1497 1497 1497 1497 1497 1497 1497 1496 1496 1495 1494 1494
1469 1470 1469 1472 1475 1474 1468 1462 1458 1459 1459 1460 1460 1461 1463 1465 1466 1467 1468 1470 1471 1473 1475 1477 1479 1481 1483 1484 1486 1488 1489 1490 1491 1492 1493 1494 1494 1494 1494 1494 1494 1494 1494 1494 1493 1492 1492 1491 1490
1468 1467 1467 1470 1472 1472 1470 1456 1451 1451 1454 1455 1456 1456 1457 1459 1460 1462 1464 1465 1467 1469 1471 1473 1475 1477 1479 1481 1483 1485 1486 1487 1488 1489 1490 1490 1491 1491 1491 1491 1491 1491 1491 1490 1489 1489 1489 1488 1487
1464 1465 1468 1471 1471 1467 1469 1456 1441 1444 1447 1448 1450 1451 1452 1454 1456 1457 1459 1461 1463 1465 1467 1469 1471 1473 1475 1477 1479 1480 1481 1483 1484 1485 1486 1487 1488 1488 1488 1488 1488 1488 1487 1486 1486 1486 1485 1484 1483
1461 1465 1468 1469 1469 1469 1466 1465 1438 1441 1441 1440 1443 1445 1447 1450 1451 1453 1455 1457 1459 1461 1463 1465 1468 1470 1471 1473 1475 1477 1478 1480 1481 1482 1483 1484 1484 1485 1485 1485 1484 1484 1483 1483 1482 1482 1481 1480 1479
1463 1466 1469 1469 1470 1468 1455 1457 1436 1433 1433 1435 1438 1441 1443 1445 1447 1449 1451 1454 1456 1458 1460 1462 1464 1466 1468 1469 1471 1473 1475 1476 1477 1478 1479 1480 1481 1481 1481 1481 1481 1480 1480 1479 1478 1478 1477 1476 1475
1460 1463 1466 1467 1466 1452 1448 1449 1433 1429 1432 1433 1435 1437 1439 1441 1444 1445 1447 1450 1452 1454 1456 1458 1461 1462 1464 1465 1467 1469 1471 1473 1474 1475 1476 1476 1477 1477 1477 1477 1477 1476 1476 1475 1474 1473 1473 1472 1470
1452 1452 1451 1450 1444 1440 1449 1441 1427 1429 1431 1432 1434 1435 1437 1438 1440 1442 1444 1446 1448 1450 1452 1455 1457 1459 1460 1462 1464 1465 1467 1469 1470 1471 1472 1472 1473 1473 1474 1473 1473 1472 1472 1471 1470 1469 1468 1467 1465
1448 1449 1446 1447 1448 1443 1435 1432 1428 1426 1428 1430 1431 1433 1434 1436 1437 1439 1441 1444 1446 1447 1449 1452 1453 1455 1457 1459 1460 1462 1464 1465 1467 1468 1469 1469 1469 1470 1470 1470 1469 1468 1467 1466 1465 1464 1463 1462 1460
1443 1444 1449 1449 1447 1437 1427 1427 1419 1419 1422 1426 1428 1429 1432 1434 1435 1437 1439 1441 1443 1445 1447 1449 1451 1452 1454 1455 1457 1459 1461 1462 1463 1464 1465 1465 1466 1466 1466 1466 1465 1464 1463 1462 1461 1459 1458 1456 1455
1443 1445 1441 1440 1438 1432 1424 1419 1415 1417 1419 1422 1425 1428 1430 1431 1433 1435 1436 1438 1440 1442 1444 1445 1447 1449 1451 1453 1454 1456 1457 1459 1460 1460 1461 1461 1462 1462 1462 1461 1461 1460 1459 1457 1456 1454 1452 1451 1449
1434 1434 1436 1437 1439 1435 1425 1420 1418 1419 1421 1422 1424 1427 1428 1430 1431 1433 1434 1436 1437 1439 1441 1443 1444 1446 1448 1450 1451 1453 1454 1456 1457 1457 1458 1458 1458 1458 1458 1457 1457 1456 1454 1453 1451 1449 1447 1445 1443